Home > Weather > Fort Lauderdale > Past weeks

Flag for USA Past Weather in Fort Lauderdale, Florida, USA — Yesterday and Last 2 Weeks

Now
87 °F

Scattered clouds.


Feels Like: 95 °F
Forecast: 79 / 89 °F
Wind: 10 mph from Southeast

Location: Fort Lauderdale / Hollywood International Airport

Current Time: Jul 25, 2016 at 12:05:03 PM

Latest Report: Jul 25, 2016 at 10:53 AM


Visibility: 10 mi

Pressure: 30.08 "Hg

Humidity: 65%

Dew Point: 74 °F

Location of Fort LauderdaleLocation

Past Weather in Fort Lauderdale — Graph

°F

Fort Lauderdale Temperature Yesterday

Maximum temperature yesterday: 85 °F (at 9:53 AM)
Minimum temperature yesterday: 77 °F (at 2:53 AM)
Average temperature yesterday: 81 °F

High & Low Weather Summary for the Past Weeks

 TemperatureHumidityPressure
High91 °F (Jul 10, 1:53 PM)88% (Jul 16, 4:53 AM)30.18 "Hg (Jul 16, 4:53 AM)
Low77 °F (Jul 23, 4:53 AM)54% (Jul 10, 1:53 PM)29.98 "Hg (Jul 23, 4:53 PM)
Average85 °F71%30.07 "Hg
* Reported Jul 10 10:53 AM — Jul 25 10:53 AM, Fort Lauderdale, Weather by CustomWeather, © 2016

Note: Actual official high and low records may vary slightly from our data, if they occured in-between our weather recording intervals... More about our weather records

Advertising

Fort Lauderdale Weather History for the Previous 24 Hours

Scroll right to see more
 ConditionsComfort  
Time TempWeatherWind HumidityBarometerVisibility
10:53 AM
Mon, Jul 25
87 °FScattered clouds.10 mph65%30.08 "Hg10 mi
9:53 AM86 °FBroken clouds.10 mph70%30.07 "Hg10 mi
8:53 AM85 °FScattered clouds.10 mph72%30.06 "Hg10 mi
7:53 AM83 °FPassing clouds.6 mph74%30.05 "Hg10 mi
6:53 AM81 °FPassing clouds.8 mph79%30.04 "Hg10 mi
5:53 AM81 °FPassing clouds.5 mph79%30.03 "Hg10 mi
4:53 AM81 °FPassing clouds.6 mph79%30.01 "Hg10 mi
3:53 AM80 °FPassing clouds.No wind81%30.03 "Hg10 mi
2:53 AM82 °FPartly cloudy.6 mph77%30.03 "Hg10 mi
1:53 AM82 °FPassing clouds.3 mph77%30.04 "Hg10 mi
12:53 AM82 °FPassing clouds.5 mph77%30.06 "Hg10 mi
11:53 PM
Sun, Jul 24
82 °FPassing clouds.6 mph74%30.06 "Hg10 mi
10:53 PM82 °FPassing clouds.3 mph74%30.06 "Hg10 mi
9:53 PM83 °FPassing clouds.8 mph74%30.06 "Hg10 mi
8:53 PM83 °FBroken clouds.7 mph74%30.06 "Hg10 mi
7:53 PM83 °FBroken clouds.7 mph70%30.03 "Hg10 mi
6:53 PM84 °FBroken clouds.9 mph65%30.02 "Hg10 mi
5:53 PM84 °FPartly sunny.5 mph63%30.01 "Hg10 mi
4:53 PM83 °FBroken clouds.3 mph65%30.02 "Hg10 mi
3:53 PM82 °FMostly cloudy.5 mph67%30.05 "Hg10 mi
2:53 PM81 °FBroken clouds.12 mph77%30.06 "Hg10 mi
1:53 PM81 °FBroken clouds.8 mph74%30.04 "Hg10 mi
12:53 PM78 °FCloudy.10 mph82%30.07 "Hg10 mi
Weather by CustomWeather, © 2016

See weather overviewHow to use our weather pages